Temp
17 14 13 13 14 15 15 15 15 17 19 18 17 16 17 20 20 20 20 23 23 23 23 23 23 22 22 22 22 22 21 21 20 20 19 19 20 20 20 20 20 21 21 20
14 13 15 16 16 16 16 15 15 16 18 18 17 17 17 18 18 20 22 22 21 22 23 23 23 22 21 22 22 22 21 21 20 20 20 20 20 20 19 19 19 19 19 20
13 15 17 17 17 17 17 16 16 16 17 17 17 16 16 18 20 21 21 23 23 22 21 22 22 21 20 21 21 21 21 21 20 19 18 18 18 19 19 19 19 19 20 19
14 16 17 17 17 17 16 17 17 17 14 13 17 12 14 17 17 17 19 20 20 21 22 22 22 20 20 20 21 20 20 20 20 19 18 18 18 18 18 18 19 21 20 20
15 16 16 16 16 16 16 17 17 16 14 13 15 13 14 16 16 15 17 19 21 21 21 22 21 21 19 19 19 19 20 20 20 19 19 18 17 18 18 17 17 18 19 20
15 17 17 16 16 16 15 14 13 12 11 11 14 13 14 14 16 16 17 19 19 21 20 21 20 18 17 18 18 18 18 18 19 18 18 18 18 17 17 18 18 17 17 18
13 14 14 16 14 15 13 11 10 9 9 12 14 13 15 15 16 16 16 16 18 20 20 19 18 17 17 17 17 17 17 17 16 16 16 16 16 16 16 16 16 17 17 17
11 10 13 13 13 12 11 9 8 10 7 11 12 11 12 16 17 17 17 16 18 18 19 18 18 17 17 17 17 17 16 16 16 15 15 15 15 15 15 15 16 16 16 16
11 12 13 13 13 12 11 9 10 9 8 8 10 12 13 15 16 16 17 15 14 17 18 19 19 19 18 18 17 17 16 16 16 16 15 15 15 15 15 15 15 15 16 16
11 9 12 14 13 12 11 10 7 8 9 9 10 11 11 13 14 14 14 14 15 15 15 17 18 18 17 17 17 17 17 16 16 16 15 15 15 15 15 15 15 15 15 15
10 9 10 11 11 10 9 9 8 8 8 9 8 10 12 12 12 13 14 15 15 14 15 15 15 16 17 17 17 17 17 16 16 16 16 15 15 15 15 15 15 15 15 15
8 6 7 9 12 13 10 8 7 7 8 8 7 8 10 13 13 13 14 16 15 15 14 14 15 15 15 16 17 17 16 16 16 16 16 15 15 15 14 14 14 14 15 15
8 6 6 7 9 9 10 8 7 6 6 7 8 8 13 11 13 13 14 15 14 14 14 14 14 14 15 15 15 16 16 16 16 15 15 15 15 15 15 15 14 15 14 14
10 7 7 6 8 7 8 10 10 7 6 9 9 11 12 10 10 10 11 13 14 14 15 15 13 14 14 14 14 14 14 15 15 15 15 15 15 15 15 15 15 15 14 14
8 7 9 9 9 10 10 11 11 9 9 8 10 10 9 10 9 9 11 11 12 12 13 13 13 13 13 14 14 14 14 14 14 14 14 14 14 14 14 14 14 14 14 14
7 7 9 8 10 11 10 10 11 9 9 9 9 9 9 10 10 10 10 11 11 12 12 12 12 13 12 13 13 13 12 13 13 13 13 13 13 13 13 13 13 13 13 13
7 6 5 6 9 9 8 7 8 8 9 9 8 9 9 8 9 9 10 10 10 11 10 10 11 10 11 11 11 11 11 12 12 12 12 12 12 12 12 12 12 11 11 11
7 7 5 5 5 7 7 7 7 8 8 8 8 8 8 8 8 7 8 9 9 8 8 8 8 9 9 9 9 10 10 11 11 11 11 11 11 11 11 10 10 10 10 10
7 6 5 4 3 7 7 9 9 8 8 6 6 6 7 6 6 7 8 9 8 8 8 7 7 7 7 7 8 7 8 9 10 10 10 10 10 10 10 9 9 9 9 9
9 8 6 5 6 3 8 9 9 9 5 6 6 5 5 5 5 6 7 6 6 6 6 6 5 5 5 5 5 5 6 7 9 9 9 9 9 9 9 9 9 8 8 8
6 5 4 6 3 5 7 8 9 5 5 5 5 5 5 5 5 5 5 5 5 5 5 4 3 4 4 3 3 3 4 5 6 7 7 7 8 8 8 8 8 8 7 8
6 5 4 6 6 5 7 7 6 5 5 5 4 4 5 5 5 5 5 4 3 3 3 2 2 2 3 3 2 3 3 4 4 5 6 6 7 7 6 6 7 7 7 7
5 6 4 5 4 6 6 6 5 4 3 4 3 4 4 5 5 4 2 2 2 1 1 1 0 0 1 2 2 2 3 3 4 4 4 5 6 6 5 6 6 6 7 7
7 7 3 4 7 4 6 5 6 4 3 3 4 4 4 4 3 2 1 1 1 0 0 0 -1 -1 0 1 1 2 2 2 3 3 4 4 4 4 5 5 7 6 6 7
5 5 3 3 5 4 5 5 3 3 4 4 4 3 4 3 2 1 1 -0 -1 -1 -1 -1 -1 -1 -1 -1 -0 1 1 2 2 3 3 4 4 4 5 5 6 6 6 7
5 3 -0 1 3 2 3 3 4 3 3 3 4 4 3 2 1 0 -0 -1 -1 -1 -1 -1 -1 -1 -1 -1 -1 -0 1 1 2 3 3 4 4 4 5 5 6 6 6 7
Height
1480 1488 1492 1485 1482 1480 1481 1482 1481 1468 1460 1463 1462 1458 1449 1440 1437 1437 1439 1441 1443 1444 1447 1447 1451 1455 1459 1463 1464 1466 1472 1476 1479 1482 1485 1489 1487 1487 1488 1494 1499 1502 1502 1506
1485 1489 1475 1473 1473 1475 1474 1477 1474 1464 1457 1457 1455 1453 1443 1438 1434 1431 1433 1437 1439 1440 1441 1444 1447 1451 1455 1458 1461 1463 1467 1472 1475 1478 1480 1483 1486 1487 1488 1487 1491 1501 1501 1500
1483 1474 1468 1469 1469 1469 1465 1467 1465 1464 1456 1451 1452 1454 1446 1435 1434 1430 1429 1431 1434 1437 1440 1441 1443 1445 1450 1454 1456 1458 1461 1468 1471 1473 1475 1479 1480 1482 1484 1485 1489 1489 1492 1495
1474 1464 1466 1465 1467 1463 1467 1454 1452 1454 1462 1473 1452 1476 1451 1438 1436 1431 1428 1428 1430 1433 1435 1436 1436 1440 1444 1448 1453 1455 1458 1464 1468 1470 1470 1473 1474 1477 1481 1481 1483 1483 1486 1491
1466 1463 1464 1465 1464 1461 1461 1453 1448 1450 1458 1461 1454 1469 1447 1438 1438 1435 1428 1424 1423 1424 1425 1426 1429 1434 1439 1443 1446 1450 1454 1459 1462 1465 1466 1467 1468 1471 1474 1475 1476 1479 1482 1482
1457 1455 1457 1458 1458 1456 1456 1456 1457 1460 1464 1475 1450 1462 1450 1441 1435 1431 1425 1422 1418 1416 1416 1418 1425 1432 1438 1442 1445 1449 1453 1457 1459 1459 1461 1462 1464 1466 1468 1469 1470 1474 1476 1477
1463 1461 1459 1456 1458 1452 1458 1467 1482 1488 1484 1465 1449 1455 1433 1428 1425 1425 1423 1412 1407 1409 1410 1411 1420 1428 1434 1439 1443 1446 1449 1451 1454 1456 1458 1459 1461 1464 1465 1467 1468 1469 1468 1468
1475 1481 1464 1461 1462 1463 1466 1471 1482 1475 1493 1467 1454 1454 1437 1420 1421 1417 1414 1400 1400 1404 1409 1411 1418 1425 1430 1434 1438 1441 1444 1447 1450 1452 1455 1457 1460 1462 1463 1465 1465 1465 1466 1468
1473 1471 1460 1459 1458 1465 1464 1472 1462 1469 1477 1479 1461 1438 1425 1419 1417 1414 1414 1409 1405 1406 1412 1415 1419 1423 1427 1430 1435 1439 1442 1443 1445 1447 1450 1453 1455 1457 1459 1460 1461 1461 1461 1462
1467 1475 1460 1455 1457 1457 1459 1466 1477 1474 1470 1465 1453 1446 1442 1426 1420 1418 1417 1419 1421 1424 1422 1420 1420 1422 1425 1426 1431 1434 1436 1438 1440 1443 1446 1448 1450 1451 1452 1454 1455 1455 1455 1456
1465 1472 1467 1459 1457 1459 1463 1466 1467 1467 1469 1465 1463 1452 1431 1427 1422 1423 1425 1424 1425 1426 1426 1424 1423 1423 1423 1425 1427 1429 1431 1433 1436 1439 1441 1444 1446 1447 1448 1449 1449 1449 1451 1452
1467 1474 1476 1464 1451 1450 1454 1461 1463 1469 1468 1465 1466 1458 1428 1425 1424 1422 1424 1423 1425 1425 1428 1428 1427 1425 1425 1424 1424 1424 1426 1429 1431 1434 1436 1437 1440 1441 1443 1444 1445 1446 1447 1448
1464 1475 1482 1470 1459 1456 1454 1457 1461 1467 1470 1463 1462 1453 1423 1427 1423 1424 1420 1423 1428 1423 1422 1422 1427 1426 1424 1422 1422 1421 1420 1423 1426 1427 1429 1431 1432 1434 1436 1438 1440 1440 1441 1442
1459 1470 1473 1481 1469 1466 1462 1453 1452 1458 1466 1449 1445 1437 1431 1432 1430 1426 1422 1421 1421 1423 1422 1418 1422 1422 1419 1416 1417 1421 1422 1421 1421 1422 1424 1424 1426 1428 1430 1431 1433 1435 1437 1436
1459 1468 1463 1462 1458 1454 1451 1446 1441 1448 1445 1447 1441 1439 1438 1434 1432 1428 1423 1421 1420 1419 1418 1418 1419 1417 1415 1412 1412 1413 1417 1421 1419 1417 1417 1418 1419 1421 1422 1424 1425 1426 1428 1428
1460 1466 1460 1460 1451 1448 1448 1443 1433 1435 1438 1438 1438 1436 1433 1430 1431 1428 1422 1420 1418 1416 1414 1412 1411 1408 1408 1409 1409 1409 1410 1412 1411 1411 1410 1411 1412 1413 1414 1415 1417 1417 1418 1418
1462 1465 1468 1466 1451 1448 1451 1451 1447 1443 1439 1439 1441 1436 1432 1429 1428 1424 1420 1417 1413 1411 1408 1405 1402 1402 1402 1402 1403 1402 1402 1403 1401 1399 1398 1398 1399 1401 1402 1404 1405 1406 1408 1409
1458 1461 1466 1470 1461 1455 1452 1451 1448 1442 1440 1437 1436 1434 1434 1430 1423 1418 1415 1409 1405 1404 1401 1399 1396 1392 1391 1391 1391 1391 1390 1390 1389 1387 1387 1387 1388 1389 1391 1393 1393 1394 1397 1397
1451 1459 1467 1476 1476 1452 1451 1445 1442 1441 1437 1438 1435 1429 1426 1421 1414 1406 1406 1403 1399 1395 1390 1387 1385 1382 1379 1376 1376 1376 1378 1378 1377 1374 1374 1375 1378 1379 1381 1381 1382 1382 1385 1386
1448 1449 1460 1466 1465 1479 1445 1443 1438 1433 1440 1433 1431 1426 1422 1418 1410 1396 1399 1395 1388 1384 1378 1374 1370 1367 1363 1360 1362 1360 1355 1358 1356 1358 1359 1363 1366 1368 1368 1369 1370 1372 1373 1374
1459 1460 1467 1460 1473 1455 1445 1439 1433 1446 1443 1430 1429 1423 1418 1412 1409 1388 1387 1382 1379 1372 1364 1358 1353 1348 1342 1342 1343 1339 1339 1336 1339 1344 1346 1349 1352 1354 1356 1357 1358 1360 1363 1365
1457 1462 1467 1456 1457 1457 1441 1438 1444 1441 1434 1430 1424 1418 1410 1403 1392 1383 1375 1368 1361 1353 1345 1339 1333 1326 1322 1322 1323 1319 1317 1320 1325 1328 1331 1333 1337 1341 1343 1344 1348 1351 1353 1356
1462 1455 1461 1456 1454 1441 1441 1441 1438 1436 1432 1425 1418 1411 1404 1392 1382 1372 1362 1352 1340 1332 1323 1317 1310 1304 1301 1302 1303 1301 1300 1307 1311 1315 1317 1321 1325 1329 1332 1335 1337 1339 1343 1345
1450 1449 1455 1453 1444 1440 1436 1436 1434 1431 1426 1419 1412 1404 1395 1384 1375 1363 1349 1335 1324 1313 1303 1296 1288 1281 1278 1280 1282 1282 1287 1293 1297 1301 1305 1309 1313 1317 1321 1325 1326 1329 1334 1337
1454 1451 1454 1453 1443 1440 1433 1432 1431 1424 1417 1410 1403 1396 1388 1378 1365 1350 1333 1320 1306 1294 1282 1274 1266 1259 1254 1257 1261 1266 1272 1279 1284 1289 1294 1298 1303 1307 1311 1315 1318 1321 1325 1329
1451 1453 1459 1455 1446 1446 1438 1432 1428 1422 1413 1405 1396 1386 1381 1372 1354 1337 1323 1308 1294 1279 1263 1250 1242 1235 1230 1233 1241 1250 1258 1266 1273 1279 1284 1288 1293 1298 1302 1306 1310 1314 1318 1321
Wind_Speed
9 2 6 13 10 13 8 12 15 16 15 4 6 10 10 22 19 18 12 18 16 17 20 19 14 19 26 26 28 26 21 24 35 37 34 33 32 29 30 31 32 30 30 26
4 7 14 12 12 12 14 15 17 10 7 5 7 11 8 9 8 15 12 13 17 20 23 23 22 22 27 29 28 26 21 19 29 37 36 35 32 32 34 32 31 33 30 29
9 13 10 11 13 13 15 14 6 7 4 5 4 7 7 5 7 7 12 14 16 18 20 25 26 26 27 26 25 24 20 18 21 28 32 34 31 27 31 41 39 35 31 26
8 10 9 12 11 8 6 8 7 4 3 4 3 6 6 5 8 7 17 17 17 23 28 30 30 32 31 28 24 21 20 21 19 19 22 26 31 30 31 30 32 36 42 42
12 6 7 11 5 7 4 10 6 4 2 1 4 1 9 4 10 9 11 22 29 28 34 37 39 38 31 28 25 22 20 21 22 20 23 22 23 29 32 33 24 28 28 34
9 2 1 2 10 2 5 4 6 5 2 2 7 5 9 7 5 5 9 28 34 34 32 35 42 33 28 22 19 18 17 17 21 25 22 25 23 25 27 29 30 35 37 37
8 7 7 5 6 2 6 3 3 4 4 11 5 4 17 2 7 4 18 34 29 23 29 33 39 35 28 25 19 13 11 9 10 10 15 16 18 20 21 25 26 24 23 27
3 5 6 4 3 3 4 6 5 7 3 12 5 6 6 5 8 11 27 35 24 34 35 41 38 33 28 23 19 17 14 13 12 10 11 10 11 14 16 15 16 17 20 20
4 6 3 7 3 2 1 4 2 3 4 4 5 7 8 6 2 11 18 29 13 34 34 32 29 24 21 18 19 17 18 16 17 18 16 15 17 16 15 13 12 12 13 16
3 4 6 1 3 4 6 6 4 1 4 5 4 6 5 3 4 11 13 18 26 22 6 26 26 24 25 21 22 22 23 22 20 18 15 18 17 14 14 14 14 13 15 15
3 2 5 3 4 3 1 4 2 2 2 2 3 5 3 5 4 3 9 22 12 15 21 19 7 17 23 25 30 28 28 27 22 18 15 12 13 13 12 13 15 16 17 17
1 4 3 8 12 5 3 4 3 3 3 4 2 5 6 4 6 9 9 15 19 14 11 18 19 13 14 23 26 29 31 27 23 21 20 20 20 21 23 23 23 22 23 22
5 0 3 9 4 3 1 4 4 3 2 5 2 4 2 7 9 5 11 17 23 25 31 25 15 11 13 13 17 20 24 26 25 26 26 24 24 23 23 22 18 20 23 25
9 3 5 5 7 4 5 4 7 7 3 4 5 8 9 6 8 11 13 6 18 28 33 30 27 13 14 12 8 5 14 27 28 28 28 27 27 27 27 27 28 27 26 26
5 4 4 6 10 12 13 13 12 10 10 4 3 3 2 3 6 10 15 10 7 7 10 16 17 20 15 14 15 14 24 20 16 22 24 26 28 30 32 34 35 34 35 35
3 3 2 4 13 8 13 8 8 1 2 3 5 4 2 8 11 10 17 14 17 15 17 15 18 15 19 22 28 30 33 31 31 32 32 32 32 31 33 33 33 35 37 39
2 2 3 5 7 12 3 9 5 5 2 3 2 1 5 7 7 12 18 22 23 21 13 16 17 20 24 27 26 26 29 32 33 35 35 35 35 36 37 35 36 39 40 42
3 2 2 4 6 1 5 0 4 11 5 6 6 8 8 10 18 24 26 24 19 19 26 29 32 35 40 42 40 36 33 33 32 33 35 33 30 31 33 37 42 43 41 40
7 4 1 1 1 6 9 3 6 6 4 5 7 11 17 23 28 25 18 17 27 38 44 42 43 44 48 53 53 49 43 42 41 42 42 40 39 38 37 38 40 44 41 38
2 3 4 1 2 4 2 8 14 7 5 8 12 13 13 22 16 15 26 35 41 39 37 43 48 47 47 50 49 49 53 50 55 48 43 42 41 41 42 42 41 43 41 43
3 1 4 2 3 6 5 10 12 5 6 21 20 21 24 16 19 46 42 39 37 45 53 52 52 52 52 48 42 44 45 45 43 43 46 46 47 45 42 43 42 40 34 35
3 0 2 2 3 6 8 5 1 3 17 21 24 30 31 35 42 40 40 44 55 51 49 48 49 51 49 46 41 43 45 45 43 41 42 45 42 41 41 39 40 39 36 39
1 4 3 5 5 3 7 8 3 18 19 23 30 34 35 40 43 37 49 59 58 56 53 50 49 48 48 44 42 43 46 41 36 36 39 44 44 43 37 37 35 36 34 31
4 4 2 4 1 7 25 10 21 29 28 33 35 39 42 38 38 53 60 58 52 55 53 50 50 49 46 43 43 45 42 37 35 35 36 36 34 34 33 31 29 27 31 34
3 3 1 5 5 21 0 26 29 37 38 36 40 38 33 38 47 57 55 57 55 54 53 49 47 49 49 44 41 41 39 35 34 33 33 32 31 30 31 30 30 33 33 32
2 2 2 4 5 6 21 29 34 34 38 39 40 38 36 45 53 55 57 56 52 52 54 52 48 48 50 43 36 35 34 34 33 31 30 31 30 29 30 30 29 28 28 27
Wind_Direction
293 101 234 236 225 236 240 258 264 270 276 249 251 278 282 305 225 227 233 210 178 176 189 201 207 216 204 215 211 214 206 203 208 215 220 223 221 215 216 222 223 228 227 230
345 259 255 249 258 248 248 253 262 272 248 267 281 286 289 288 244 194 192 227 226 197 193 202 216 217 208 214 211 216 219 208 212 216 221 226 232 230 221 214 227 227 222 233
213 242 265 261 264 266 269 244 234 239 307 313 315 291 301 302 278 217 221 234 244 239 212 201 208 212 199 203 207 213 219 218 219 223 221 227 235 237 231 221 222 230 237 221
241 251 258 289 294 289 278 251 254 263 69 246 90 283 301 293 286 303 302 294 271 262 252 233 211 202 206 205 210 215 214 223 226 235 243 241 240 244 242 238 235 232 235 238
236 254 273 285 308 9 289 296 241 194 203 57 239 165 278 308 289 289 293 289 286 289 264 230 209 207 196 190 194 204 212 225 236 252 259 258 248 240 249 249 250 240 231 232
231 315 120 200 309 146 317 17 14 351 88 283 265 166 282 250 235 292 284 294 282 284 244 220 204 186 173 179 188 203 217 234 249 261 257 253 256 253 254 256 255 248 248 244
0 319 304 329 288 216 65 51 2 317 311 250 175 190 239 343 288 286 332 303 265 242 200 181 171 172 177 176 182 190 210 220 235 249 241 244 250 251 258 259 257 254 254 249
89 324 359 21 12 354 300 170 180 235 226 271 313 240 249 217 297 350 350 320 210 172 172 161 165 168 173 181 192 195 205 210 226 221 240 253 250 256 253 251 253 253 254 260
200 225 250 244 105 240 70 231 219 129 218 256 249 291 315 254 342 12 5 22 126 155 162 169 176 190 190 199 196 208 213 224 235 244 227 235 256 260 254 256 263 266 263 264
191 287 239 343 169 243 195 303 76 166 233 236 257 243 247 341 345 10 347 0 32 27 164 178 175 181 188 191 210 215 218 217 233 241 253 252 255 262 266 271 268 277 280 280
128 139 289 339 238 204 272 224 38 130 202 296 322 277 240 173 142 81 319 292 4 15 13 6 318 201 195 206 207 216 218 221 224 233 233 235 244 255 263 276 287 301 296 284
82 150 258 255 286 204 164 166 162 133 212 228 204 266 268 152 145 184 221 230 275 297 327 354 333 300 262 215 215 222 221 221 228 231 231 235 243 248 250 253 261 271 284 288
179 27 344 333 354 330 93 185 140 109 113 228 202 251 331 335 317 240 224 200 277 289 290 299 336 323 270 249 233 221 214 219 220 221 223 223 227 232 243 251 260 269 266 272
146 159 171 211 243 232 285 247 201 174 178 215 227 307 321 339 3 344 344 300 215 234 253 275 286 304 304 286 224 315 272 227 217 217 225 228 236 243 247 252 258 263 263 265
134 202 227 266 282 285 280 281 284 210 233 227 288 307 326 337 318 308 316 324 316 303 272 268 277 266 271 289 261 249 281 266 241 227 232 238 243 248 253 255 257 261 268 266
355 248 264 273 282 290 313 321 288 337 135 230 271 236 305 309 320 323 343 321 315 298 284 275 282 292 285 266 257 252 266 269 269 266 262 259 258 259 261 263 264 263 268 268
224 140 36 277 302 303 352 348 342 307 258 240 253 298 327 311 302 312 306 303 297 291 289 284 278 284 285 286 283 278 272 269 262 259 262 262 265 269 271 271 274 282 285 287
222 111 132 272 340 284 145 237 23 297 358 52 356 337 319 300 309 306 304 296 296 297 305 301 297 294 293 291 287 285 280 267 260 254 248 250 253 260 269 276 280 282 282 285
157 142 66 174 247 280 175 2 327 326 264 27 355 337 326 319 315 300 301 287 290 295 296 296 294 288 288 287 283 280 269 265 265 260 257 258 259 262 267 271 275 276 267 271
97 132 135 144 286 248 29 326 300 288 257 10 341 331 322 323 306 296 302 297 296 289 282 292 289 282 276 273 272 273 265 261 256 256 257 257 259 261 265 270 273 264 262 262
307 340 174 207 231 281 349 307 328 68 275 325 325 309 304 296 290 295 299 293 293 289 288 288 287 279 274 271 268 258 256 251 251 252 254 254 254 257 262 265 263 258 254 257
196 181 231 190 228 289 13 349 49 278 320 311 311 308 302 299 298 295 298 299 299 293 287 284 285 277 272 268 258 259 254 256 255 251 252 248 250 253 265 249 247 248 251 249
119 185 204 171 230 258 316 282 288 336 311 307 307 307 307 304 303 302 309 307 303 299 294 288 284 276 267 262 256 254 252 251 251 245 246 250 255 259 247 243 246 247 248 251
347 38 133 25 277 316 318 325 323 327 314 314 311 312 308 310 308 305 305 301 299 296 291 288 284 277 268 261 255 250 249 243 242 242 243 250 244 241 243 246 244 240 243 243
235 348 16 263 304 330 16 325 323 322 323 316 312 312 317 312 309 308 309 307 303 300 298 292 282 275 269 264 252 246 243 238 236 233 238 245 242 242 244 245 242 241 247 240
209 187 128 246 307 281 287 305 319 315 312 313 312 321 324 322 316 315 313 310 310 309 310 302 291 277 273 264 254 240 235 228 223 230 230 228 239 243 242 241 242 239 244 238